Simultaneous Nadir Overpasses (SNOs) Predictions

Prediction of SNOs between METOP-B and NOAA-19 Satellite Orbit:

Table of predicted SNOs for the next 14.0 days since TLE Epoch: 12/17/2022
Index Date (METOP-B) Time (METOP-B) Lat,Lon (METOP-B) SZA (METOP-B ) Date (NOAA-19) Time (NOAA-19) Lat,Lon (NOAA-19) SZA (NOAA-19 ) Distance(km) Time Diff (sec)
1 12/23/2022 17:32:56 -80.93, 131.94 74.11 12/23/2022 17:31:53 -80.92, 131.78 74.15 3.08 63
2 12/23/2022 18:23:38 80.91, -61.18 105.84 12/23/2022 18:22:48 80.92, -61.12 105.84 1.56 50
3 12/23/2022 19:14:18 -80.92, 106.46 74.13 12/23/2022 19:13:52 -80.92, 106.50 74.14 0.97 26
4 12/23/2022 20:04:59 80.92, -86.30 105.87 12/23/2022 20:04:47 80.92, -86.41 105.85 1.87 12
5 12/23/2022 20:55:40 -80.92, 80.98 74.15 12/23/2022 20:55:52 -80.92, 80.84 74.15 2.46 12
6 12/23/2022 21:46:21 80.91,-111.78 105.85 12/23/2022 21:46:46 80.92,-111.70 105.87 1.66 25
7 12/23/2022 22:37:02 -80.91, 55.50 74.17 12/23/2022 22:37:51 -80.92, 55.55 74.14 1.28 49



Historial Predications of SNOs between METOP-B and NOAA-19
